カタログに戻る

STARLINK-37586

運用中通信VLEO
NORAD 69521·PAYLOAD·🇺🇸 United States

打ち上げ Jun 12, 2026 から Cape Canaveral Space Force Station

Loading…

次のパス (今後24時間)

TLE

最新Source: CelesTrak SupGP

元期: Sep 14, 2026, 23:13 UTC

1 69521C 26133P   26257.96784722  .00035171  00000+0  10391-2 0  2574
2 69521  53.1563 255.4573 0001201  92.1300 359.4427 15.34374517    13

AllMySatでSTARLINK-37586をリアルタイム追跡

Download on the App Store